TimeMST,TemperatureF,Dew PointF,Humidity,Sea Level PressureIn,VisibilityMPH,Wind Direction,Wind SpeedMPH,Gust SpeedMPH,PrecipitationIn,Events,Conditions,WindDirDegrees,DateUTC
12:55 AM,37.4,10.4,33,30.04,25.0,WNW,3.5,-,N/A,,Mostly Cloudy,290,2013-01-24 07:55:00
1:55 AM,35.6,14.0,41,30.04,25.0,West,5.8,-,N/A,,Mostly Cloudy,280,2013-01-24 08:55:00
2:55 AM,35.6,14.0,41,30.01,25.0,SSW,6.9,-,N/A,,Mostly Cloudy,200,2013-01-24 09:55:00
3:55 AM,39.2,6.8,26,30.00,25.0,SSW,8.1,-,N/A,,Mostly Cloudy,210,2013-01-24 10:55:00
4:55 AM,32.0,8.6,38,30.04,25.0,South,6.9,-,N/A,,Mostly Cloudy,190,2013-01-24 11:55:00
5:55 AM,39.2,6.8,26,30.01,25.0,SSW,8.1,-,N/A,,Mostly Cloudy,210,2013-01-24 12:55:00
6:55 AM,37.4,5.0,26,30.01,70.0,South,11.5,-,N/A,,Mostly Cloudy,190,2013-01-24 13:55:00
7:55 AM,39.2,3.2,22,30.01,70.0,South,4.6,-,N/A,,Mostly Cloudy,180,2013-01-24 14:55:00
8:55 AM,44.6,5.0,20,30.01,70.0,South,6.9,-,N/A,,Mostly Cloudy,180,2013-01-24 15:55:00
9:55 AM,50.0,3.2,15,29.99,70.0,SSW,9.2,-,N/A,,Mostly Cloudy,210,2013-01-24 16:55:00
10:55 AM,55.4,1.4,11,29.95,70.0,South,9.2,-,N/A,,Mostly Cloudy,180,2013-01-24 17:55:00
11:55 AM,60.8,3.2,10,29.88,70.0,WNW,12.7,-,N/A,,Mostly Cloudy,290,2013-01-24 18:55:00
12:55 PM,60.8,6.8,12,29.88,70.0,WSW,4.6,-,N/A,,Mostly Cloudy,240,2013-01-24 19:55:00
1:55 PM,64.4,12.2,13,29.85,70.0,NW,12.7,-,N/A,,Mostly Cloudy,310,2013-01-24 20:55:00
2:55 PM,64.4,17.6,16,29.86,70.0,NW,19.6,28.8,N/A,,Mostly Cloudy,310,2013-01-24 21:55:00
3:55 PM,62.6,21.2,20,29.86,70.0,WNW,18.4,28.8,N/A,,Mostly Cloudy,290,2013-01-24 22:55:00
4:55 PM,59.0,23.0,25,29.92,25.0,NW,20.7,-,N/A,,Mostly Cloudy,320,2013-01-24 23:55:00
5:55 PM,53.6,24.8,33,29.95,25.0,NW,17.3,-,N/A,,Mostly Cloudy,310,2013-01-25 00:55:00
6:55 PM,48.2,24.8,40,30.02,25.0,North,11.5,-,N/A,,Mostly Cloudy,360,2013-01-25 01:55:00
7:55 PM,51.8,24.8,35,30.01,25.0,NNW,15.0,17.3,N/A,,Mostly Cloudy,340,2013-01-25 02:55:00
8:55 PM,51.8,24.8,35,30.00,25.0,West,11.5,-,N/A,,Mostly Cloudy,260,2013-01-25 03:55:00
9:55 PM,48.2,24.8,40,30.01,25.0,ESE,2.3,-,N/A,,Mostly Cloudy,120,2013-01-25 04:55:00
10:55 PM,44.6,23.0,43,30.02,25.0,Calm,Calm,-,N/A,,Scattered Clouds,0,2013-01-25 05:55:00
11:55 PM,39.2,24.8,56,30.01,25.0,SW,8.1,-,N/A,,Clear,220,2013-01-25 06:55:00